Showing default

ES'HAIL 2, 43700

Orbit data source: Space-Track

ES'HAIL 2, 43700 is a payload satellite owned by Es'hailsat (QA) in GEO that was launched on Thu, 15 Nov 2018 UTC via an FALCON 9 launch vehicle from the Air Force Eastern Test Range (AFETR). Payloads include a variety of satellites, spacecraft, and rockets equipped with specific instruments for various scientific and technological missions. These include communications satellites like Starlink; space stations such as the ISS; scientific satellites like the Hubble; Earth observation satellites from companies like Planet Labs, Umbra, and HawkEye 360; GPS; miniature CubeSats for education and research; and military/defense satellites.

Not visible in the next 10 days
ES'HAIL 2 details
Identifier
43700, 2018-090A
Orbit
GEO
Last TLE update22 hours ago
Origin
Flag of QAEs'hailsat (QA / QAT)
ManufacturerMELCO
MissionOperational Commercial Communications
Bus & MotorDS-2000, R-4D-11
Mass~5,300 kg wet, ~2,000 kg dry
Launch date (UTC)
2018-11-15 (6 years ago)
Launch vehicle
FALCON 9
Launch site
Air Force Eastern Test Range (AFETR)
Object type
Payload
Rocket body
Debris
Shape & HBRBox + 2 Pan, 25.3 m
Radar Cross Section52.659 m²

Expand to show TLE details & history

TLE from 22 hours ago
0 ES'HAIL 2
1 43700U 18090A   24360.81998307  .00000172  00000-0  00000-0 0  9992
2 43700   0.0164 327.5768 0002530 354.4235  93.8484  1.00273803 22274
Epoch: 2024-12-25T19:40Z
Definitive object data (Epoch: 2024-12-25T19:40:46.537Z)
Latitude0.03503°
Longitude25.86824°
Altitude35,786.276 km
Speed3.075 km/s
True Right ascension03h 43m 28s
True Declination0° 02' 06"
Sunlit
Object was in daylight at TLE epoch
Visualization TLE readout
Latitude0.0292°
Longitude3.95035°
Altitude35,782.132 km
Speed3.075 km/s
Apparent Right ascension02h 34m 26s
Apparent Declination-5° 04' 59"
Sunlit
Object is in daylight
Visualization observer readout
Local Sidereal Time17:31:50
Azimuth60.803° ENE
Elevation-37.097°
Doppler factor1
Orbital elements
Apogee altitude35,797.767 km
Perigee altitude35,776.432 km
Semi-major axis42,165.237 km
Eccentricity0.000253
Inclination0.0164°
RAAN327.5768°
Arg. of periapsis354.4235°
True anomaly93.87733°
Mean anomaly93.8484°
Eccentric anomaly93.86286°
Mean motion0.25068 °/min
BSTARUnknown
Orbital period1436.12 mins
Loading historical data...
43700 neighbors
Authenticating...
Loading maneuver chart data...
Loading historical data...
Loading historical data...
Loading historical data...
Loading historical data...
Loading historical data...
Loading historical data...
Loading historical data...
Other satellites on launch #90 in the year 2018 (2018-11-15 UTC)

ES'HAIL 2 Visibility forecast

Observer location: undefined°, undefined

ES'HAIL 2 is not visible in the next 10 days
Span
Click to sort rows by Start time (UTC) header in descending order
Start Az.
Max El. time (UTC)
Max El. Az.
Max El.
End time (UTC)
End Az.
|